Volver al catálogo

STARLINK-6343

ActivoComunicacionesVLEO
NORAD 57362·PAYLOAD·🇺🇸 United States

Lanzado Jul 16, 2023 desde Cape Canaveral Space Force Station

Loading…

Próximos Pases (próximas 24 horas)

TLE

ActualizadoSource: CelesTrak SupGP

Época: Sep 14, 2026, 21:03 UTC

1 57362C 23099AL  26257.87756944  .00026779  00000+0  96969-3 0  2577
2 57362  43.0006 252.9790 0001636 267.6164 187.1820 15.27572780    12

Sigue STARLINK-6343 en tiempo real con AllMySat

Download on the App Store